Hourly Data Report for September 14, 2017

All times are specified in Local Standard Time (LST). Add 1 hour to adjust for Daylight Saving Time where and when it is observed.

BAKER LAKE A
NUNAVUT

64°17'56.000" N
96°04'40.000" W
18.60 m
2300503
71926
YBK

Download Data

Hourly Data (September 2017)
Hourly Data Report for September 14, 2017
Temp Definition
°C
Dew Point Temp Definition
°C
Rel Hum Definition
%
Wind Dir Definition
10's deg

Wind Spd Definition
km/h
Visibility Definition
km
Stn Press Definition
kPa
Hmdx Definition


Wind Chill Definition


Weather Definition


TIME
00:00 Legend Double Dagger 1.4 -4.3 66 27 4 24.1 101.51     Mostly Cloudy
01:00 Legend Double Dagger 0.6 -4.0 71 29 13 24.1 101.52     LegendNANA
02:00 Legend Double Dagger 2.4 -2.6 69 17 3 24.1 101.54     LegendNANA
03:00 Legend Double Dagger 0.3 -1.7 86 36 1 24.1 101.56     Mainly Clear
04:00 Legend Double Dagger 0.3 -1.6 87 20 8 24.1 101.56     LegendNANA
05:00 Legend Double Dagger -1.2 -2.7 89 33 4 24.1 101.58   -3 LegendNANA
06:00 Legend Double Dagger -1.9 -3.2 91 29 5 32.2 101.60   -4 Mostly Cloudy
07:00 Legend Double Dagger 1.7 0.1 89 33 4 32.2 101.61     LegendNANA
08:00 Legend Double Dagger 2.6 0.9 88 36 2 32.2 101.63     LegendNANA
09:00 Legend Double Dagger 6.0 0.7 69 3 4 32.2 101.62     Mostly Cloudy
10:00 Legend Double Dagger 6.9 1.3 67 20 3 32.2 101.62     LegendNANA
11:00 Legend Double Dagger 9.4 0.2 52 32 10 32.2 101.59     LegendNANA
12:00 Legend Double Dagger 10.1 0.2 50 31 15 32.2 101.57     Mostly Cloudy
13:00 Legend Double Dagger 8.8 2.3 63 34 17 32.2 101.58     LegendNANA
14:00 Legend Double Dagger 8.4 2.4 66 32 17 32.2 101.59     LegendNANA
15:00 Legend Double Dagger 8.8 1.6 60 32 23 32.2 101.60     Mostly Cloudy
16:00 Legend Double Dagger 8.0 0.6 60 33 22 32.2 101.62     LegendNANA
17:00 Legend Double Dagger 7.5 -0.2 58 31 22 32.2 101.62     LegendNANA
18:00 Legend Double Dagger 5.9 -0.6 63 33 16 32.2 101.64     Mainly Clear
19:00 Legend Double Dagger 2.4 -1.5 75 32 12 32.2 101.65     LegendNANA
20:00 Legend Double Dagger 1.8 -1.7 78 31 17 24.1 101.66     LegendNANA
21:00 Legend Double Dagger 0.2 -2.2 84 32 20 24.1 101.64     Clear
22:00 Legend Double Dagger 0.0 -2.2 85 30 15 24.1 101.65   -4 LegendNANA
23:00 Legend Double Dagger 0.2 -2.0 85 30 16 24.1 101.65     LegendNANA

Notes on Data Quality.

Legend

  • E = Estimated
  • M = Missing
  • NA = Not Available
  • ‡ = Partner data that is not subject to review by the National Climate Archives
Date modified: